Location: ????????
(55.5667°N, 37.5833°E)
Time: 15:05:33
(UTC+00:00)

NOSS 3-4 (A) - Pass Details

Date: 14 April 2026
Orbit: 769 x 1442 km, 63.4° (Epoch: 10 January)

Event Time Altitude Azimuth Distance (km) Brightness Sun altitude
Rises 18:04:53 0° 194° (SSW) 3,237 6.0 -12.2°
Reaches altitude 10° 18:07:23 10° 185° (S) 2,337 5.2 -12.5°
Maximum altitude 18:12:07 34° 121° (ESE) 1,338 3.7 -13.0°
Drops below altitude 10° 18:17:19 10° 59° (ENE) 2,578 5.5 -13.5°
Sets 18:20:12 0° 51° (NE) 3,622 6.4 -13.9°
